#timestamp,LO_Frequency,Hit 
1501236015.3,286046993.1,N
1501236035.1,286046993.1,N
1501236036.0,286046993.1,N
1501236055.8,286046992.5,N
1501236075.7,286046989.9,N
1501236095.5,286046985.3,N
1501236115.3,286046983.7,N
1501236135.1,286046984.6,N
1501236155.9,286046984.6,N
1501236175.7,286046980.6,N
1501236195.5,286046983.0,N
1501236215.4,286046982.5,N
1501236235.2,286046983.5,N
1501236255.0,286046982.9,N
1501236255.9,286046982.9,N
1501236275.8,286046985.2,N
1501236295.6,286046984.7,N
1501236315.4,286046985.2,N
1501236335.3,286046983.7,N
1501236355.1,286046986.6,N
1501236356.0,286046986.6,N
1501236375.8,286046983.7,N
1501236395.6,286046985.6,N
1501236415.5,286046986.7,N
1501236435.3,286046984.1,N
1501236455.1,286046983.1,N
1501236475.9,286046980.0,N
1501236495.7,286046975.8,N
1501236515.5,286046977.9,N
1501236535.4,286046977.8,N
1501236555.2,286046978.0,N
1501236575.0,286046977.5,N
1501236575.9,286046977.5,N
1501236595.8,286046977.9,N
1501236615.6,286046979.7,N
1501236635.4,286046981.7,N
1501236655.2,286046981.5,N
1501236675.1,286046981.4,N
1501236676.0,286046981.4,N
1501236695.8,286046980.3,N
1501236715.6,286046979.0,N
1501236735.5,286046981.9,N
1501236755.3,286046982.6,N
1501236775.1,286046982.8,N
1501236795.9,286046978.9,N
1501236815.7,286046981.9,N
1501236835.5,286046977.8,N
1501236855.4,286046978.1,N
1501236875.2,286046975.8,N
1501236895.0,286046977.9,N
1501236895.9,286046977.9,N
1501236915.8,286046980.1,N
1501236935.6,286046977.3,N
1501236955.4,286046977.6,N
1501236975.2,286046978.6,N
1501236995.1,286046978.4,N
1501236996.0,286046978.4,N
1501237015.8,286046978.2,N
1501237035.6,286046977.4,N
1501237055.5,286046981.5,N
1501237075.3,286046981.3,N
1501237095.1,286046981.7,N
1501237115.9,286046981.6,N
1501237135.7,286046981.8,N
1501237155.5,286046980.2,N
1501237175.4,286046977.9,N
1501237195.2,286046980.4,N
1501237215.0,286046976.2,N
1501237215.9,286046976.2,N
1501237235.7,286046976.3,N
1501237255.6,286046978.7,N
1501237275.4,286046975.8,N
1501237295.2,286046974.8,Y
1501237315.1,286046990.7,N
1501237316.0,286046990.7,N
1501237335.8,286046991.3,N
1501237355.6,286046991.1,N
1501237375.5,286046991.2,N
1501237395.3,286046990.7,N
1501237415.1,286046991.6,N
1501237435.9,286046987.6,N
1501237455.7,286046988.2,N
1501237475.5,286046986.1,N
1501237495.4,286046987.8,N
1501237515.2,286046985.8,N
1501237535.0,286046984.3,N
1501237535.9,286046984.3,N
1501237555.7,286046985.9,N
1501237575.6,286046983.8,N
1501237595.4,286046982.8,N
1501237615.2,286046984.8,N
1501237635.1,286046986.7,N
1501237636.0,286046986.7,N
1501237655.8,286046984.1,N
1501237675.6,286046983.9,N
1501237695.5,286046984.4,N
1501237715.3,286046983.1,N
1501237735.1,286046980.7,N
1501237755.9,286046981.1,N
1501237775.7,286046980.8,N
1501237795.5,286046981.2,N
1501237815.4,286046981.6,N
1501237835.2,286046982.0,N
1501237855.0,286046980.7,N
1501237855.9,286046980.7,N
1501237875.7,286046979.6,N
1501237895.6,286046980.2,N
1501237915.4,286046979.8,N
1501237935.2,286046977.7,Y
1501237955.1,286046990.2,N
1501237956.0,286046990.2,N
1501237975.8,286046990.9,N
1501237995.6,286046990.8,N
1501238015.5,286046991.4,N
1501238035.3,286046988.7,N
1501238055.1,286046990.8,N
1501238075.9,286046990.1,N
1501238095.7,286046991.4,N
1501238115.5,286046991.1,N
1501238135.4,286046989.0,N
1501238155.2,286046989.6,N
1501238175.0,286046987.3,N
1501238175.9,286046987.3,N
1501238195.8,286046988.2,N
1501238215.6,286046985.8,N
1501238235.4,286046987.6,N
1501238255.2,286046985.8,N
1501238275.1,286046985.5,N
1501238276.0,286046985.5,N
1501238295.8,286046985.8,N
1501238315.6,286046987.9,N
1501238335.5,286046984.6,N
1501238355.3,286046982.5,N
1501238375.1,286046982.4,N
1501238395.9,286046982.7,N
1501238415.7,286046982.6,N
1501238435.5,286046982.7,N
1501238455.4,286046984.0,N
1501238475.2,286046984.9,N
1501238495.0,286046980.6,N
1501238495.9,286046980.6,N
1501238515.7,286046983.3,N
1501238535.6,286046982.2,N
1501238555.4,286046984.8,N
1501238575.2,286046985.1,N
1501238595.1,286046981.0,N
1501238596.0,286046981.0,N
1501238615.8,286046980.5,N
1501238635.6,286046982.4,N
1501238655.5,286046980.6,N
1501238675.3,286046981.2,N
1501238695.1,286046980.9,N
1501238715.9,286046979.1,Y
1501238735.7,286046993.8,N
1501238755.5,286046994.2,N
1501238775.4,286046991.7,N
1501238795.2,286046992.4,N
1501238815.0,286046990.3,N
1501238815.9,286046990.3,N
1501238835.7,286046992.4,N
1501238855.6,286046993.1,N
1501238875.4,286046992.7,N
1501238895.2,286046990.3,N
1501238915.1,286046989.3,N
1501238916.0,286046989.3,N
1501238935.8,286046991.1,N
1501238955.6,286046990.9,N
1501238975.5,286046992.7,N
1501238995.3,286046991.9,N
1501239015.1,286046990.6,N
1501239035.9,286046991.0,N
1501239055.7,286046991.2,N
1501239075.5,286046989.1,N
1501239095.4,286046991.4,N
1501239115.2,286046989.7,N
1501239135.0,286046987.3,N
1501239135.9,286046987.3,N
1501239155.7,286046987.5,N
1501239175.6,286046987.2,N
1501239195.4,286046987.7,N
1501239215.2,286046987.9,N
1501239235.1,286046988.1,N
1501239236.0,286046988.1,N
1501239255.8,286046987.9,N
1501239275.6,286046986.6,N
1501239295.5,286046985.1,N
1501239315.3,286046984.9,N
1501239335.1,286046982.9,N
1501239355.9,286046983.2,N
1501239375.7,286046980.8,N
1501239395.5,286046980.7,N
1501239415.3,286046979.4,Y
1501239435.2,286046992.9,N
1501239455.0,286046992.5,N
1501239455.9,286046992.5,N
1501239475.7,286046992.8,N
1501239495.6,286046990.5,N
1501239515.4,286046990.8,N
1501239535.2,286046990.9,N
1501239555.1,286046991.1,N
1501239556.0,286046991.1,N
1501239575.8,286046990.8,N
1501239595.6,286046988.8,N
